Location: Oklahoma City
(35.4680°N, 97.5160°W)
Time: 11:17:37
(UTC-05:00)

ISS - Visible Passes

Search period start: 20 September 2017 00:00
Search period end: 30 September 2017 00:00
Orbit: 402 x 407 km, 51.6° (Epoch: 21 September)

Date Brightness Start Highest point End Pass type
(mag) Time Alt. Az. Time Alt. Az. Time Alt. Az.
20 Sep -1.0 04:59:44 18° NE 04:59:44 18° NE 05:01:33 10° E visible
20 Sep -3.4 06:32:34 10° WNW 06:35:42 42° SW 06:38:49 10° SSE visible
21 Sep -3.9 05:43:19 81° NNW 05:43:27 86° NE 05:46:44 10° SE visible
22 Sep -2.0 06:27:07 15° SW 06:27:18 16° SW 06:29:21 10° SSW visible
23 Sep -2.9 20:33:27 10° SSW 20:36:14 30° SE 20:36:14 30° SE visible
24 Sep -2.3 21:17:14 10° WSW 21:19:41 36° WNW 21:19:41 36° WNW visible
25 Sep -3.9 20:24:42 10° SW 20:27:57 89° SSW 20:30:10 19° NE visible
26 Sep -1.4 21:09:45 10° W 21:12:13 20° NNW 21:13:07 18° N visible
27 Sep -2.2 20:16:41 10° WSW 20:19:41 34° NW 20:22:43 10° NNE visible
28 Sep -0.8 21:03:10 10° NW 21:04:13 11° NNW 21:05:15 10° N visible
29 Sep -1.2 20:09:18 10° WNW 20:11:31 17° NNW 20:13:46 10° NNE visible
